Regional Weather Roundup
Issued by NWS Charleston, SC

Current Version | Previous Version | Text Only | Print | Product List | Glossary Off
Versions: 1 2 3 4 5 6 7 8 9 10 11 12 13 14 15 16 17 18 19 20 21 22 23 24 25 26 27 28 29 30 31 32 33 34 35 36 37 38 39 40 41 42 43 44 45 46 47 48 49 50

000
ASUS42 KCHS 060026
RWRCHS

REGIONAL WEATHER ROUNDUP
NATIONAL WEATHER SERVICE CHARLESTON SC
700 PM EST THU MAR 05 2015

NOTE: "FAIR" INDICATES FEW OR NO CLOUDS BELOW 12,000 FEET WITH NO
SIGNIFICANT WEATHER AND/OR OBSTRUCTIONS TO VISIBILITY.

NOT ALL STATIONS ARE QUALITY CONTROLLED BY THE NATIONAL
WEATHER SERVICE. USE DATA WITH CAUTION...ESPECIALLY
DEWPOINT OBSERVATIONS.

SCZ027-030-031-034>040-042>050-060100-
...SOUTHEAST SOUTH CAROLINA...

CITY           SKY/WX    TMP DP  RH WIND       PRES   REMARKS
N CHARLESTON   LGT RAIN  65  64  97 W3        30.03R FOG
6HR MIN TEMP:  65; 6HR MAX TEMP:  80; 6HR PCP:  0.08;

WATERFRONT PRK   N/A     66 N/A N/A W5G12       N/A
MOUNT PLEASANT RAIN      66  64  94 CALM      30.04R
PINOPOLIS      NOT AVBL
MONCKS CORNER  LGT RAIN  66  63  88 CALM      30.03R
SUMMERVILLE    DRIZZLE   64  64 100 SW3       30.04R
BEAUFORT MCAS  LGT RAIN  65  63  93 W8        30.04R FOG
6HR MIN TEMP:  64; 6HR MAX TEMP:  83; 6HR PCP:  0.12;

BEAUFORT ARPT  RAIN      64  64 100 W9        30.04R
HILTON HEAD IS LGT RAIN  64  64 100 NW6       30.06R
WALTERBORO     LGT RAIN  64  63  94 SW6       30.03S
ALLENDALE      CLOUDY    63  61  94 CALM      30.05R

...SOUTHERN MIDLANDS AND PEE DEE...

CITY           SKY/WX    TMP DP  RH WIND       PRES   REMARKS
GEORGETOWN     NOT AVBL
KINGSTREE      NOT AVBL
ORANGEBURG     LGT RAIN  62  58  86 NW6       30.02R
6HR MIN TEMP:  62; 6HR MAX TEMP:  83; 6HR PCP:  0.16;

BARNWELL       LGT RAIN  61  61 100 W6        30.05R
AIKEN          CLOUDY    57  52  82 NW9G16    30.09R
MANNING        RAIN     N/A N/A N/A N13       30.07R
COLUMBIA       CLOUDY    52  48  86 NE10G18   30.06R
6HR MIN TEMP:  52; 6HR MAX TEMP:  81; 6HR PCP:  0.08;

SUMTER         LGT RAIN  46  45  93 N18       30.08R
6HR MIN TEMP:  47; 6HR MAX TEMP:  81; 6HR PCP:  0.44;

FLORENCE       LGT RAIN  44  41  89 N14       30.09R
6HR MIN TEMP:  44; 6HR MAX TEMP:  82; 6HR PCP:  0.33;

MYRTLE BEACH   MOCLDY    48  45  87 NE6       30.07R
N MYRTLE BEACH HVY RAIN  45  43  93 N7        30.09R FOG
6HR MIN TEMP:  46; 6HR MAX TEMP:  67; 6HR PCP:  0.04;


$$

GAZ063-065-086>088-099>101-113>116-118-119-134>141-150-060100-
...SOUTHEAST GEORGIA...

CITY           SKY/WX    TMP DP  RH WIND       PRES   REMARKS
SAVANNAH ARPT  HVY RAIN  64  62  93 W8        30.05R FOG
6HR MIN TEMP:  64; 6HR MAX TEMP:  84; 6HR PCP:  0.13;

HUNTER AAF     LGT RAIN  64  64 100 W6        30.04R
FORT STEWART   LGT RAIN  64  63  94 W6        30.04R
6HR MIN TEMP:  64; 6HR MAX TEMP:  83; 6HR PCP:  0.19;

STATESBORO     LGT RAIN  60  60 100 W10       30.07R
SYLVANIA       CLOUDY    61  60  96 NW9       30.06R
CLAXTON        LGT RAIN  61  61 100 W6        30.07R

...CSRA...CENTRAL AND FAR SOUTHEAST GEORGIA...

CITY           SKY/WX    TMP DP  RH WIND       PRES   REMARKS
THOMSON        CLOUDY    52  47  83 W8        30.15R
AUGUSTA-BUSH   CLOUDY    60  54  80 NW16      30.05R
6HR MIN TEMP:  60; 6HR MAX TEMP:  80; 6HR PCP:  0.07;

AUGUSTA-DANIEL CLOUDY    60  52  74 NW12      30.06R
SWAINSBORO     LGT RAIN  59  55  88 NW8       30.10R
VIDALIA        LGT RAIN  59  57  94 NW8       30.08R
EASTMAN        CLOUDY    55  54  95 NW9       30.14R
HAZLEHURST     CLOUDY    62  62 100 NW6       30.09R
ALMA           LGT RAIN  64  61  90 NW7       30.07R
6HR MIN TEMP:  63; 6HR MAX TEMP:  82; 6HR PCP:  0.36;

WAYCROSS       DRIZZLE   67  66  95 N5        30.08R
JESUP          DRIZZLE   66  64  94 NW6       30.08S
BAXLEY         RAIN      63  61  94 NW8       30.07R
BRUNSWICK      CLOUDY    68  63  83 W8G16     30.08R
SAINT SIMONS   LGT RAIN  69  63  81 NW10G24   30.06R
6HR MIN TEMP:  73; 6HR MAX TEMP:  84;


$$

SCZ027-028-034-036>038-045-046-048>050-GAZ119-141-060100-
...LAKE AND SUPPLEMENTAL COASTAL OBSERVATIONS...

STATION/POSITION TIME  TEMP    WIND        PRES    WAVE   SWELL
                       AIR SEA DIR/SP/G            HT/PER HT/PER/DIR
                 (UTC) (F)     (DEG/KT/KT) (MB)    (FT/S) (FT/S/D)
UPR LAKE MARION  NOT AVBL
WINYAH BAY       2345   54      60/ 12     1016.0R
LAKE MURRAY      0000   49      30/  6/ 11 1017.9R
ACE BASIN NERRS  NOT AVBL
FORT PULASKI     0000   64 54  300/ 14/ 16 1018.1R
SAPELO ISLAND    0000   67     320/ 12     1017.0R

$$

ANZ835-935-AMZ111-154-330-350-352-354-370-450-454-472-060100-
...C-MAN AND BUOY OBSERVATIONS...

STATION/POSITION TIME  TEMP    WIND        PRES    WAVE   SWELL
                       AIR SEA DIR/SP/G            HT/PER HT/PER/DIR
                 (UTC) (F)     (DEG/KT/KT) (MB)    (FT/S) (FT/S/D)
BUOY 41004       2350   71 69  210/ 19/ 23 1014.4R   6/ 7   2/11
BUOY 41008       2350   60 56  190/ 12/ 14 1016.2R   3/10   2/ 90/10
FOLLY BEACH CMAN 0000   65     300/  7/ 12 1017.6R
CAPERS NEARSHORE 2300   56     260/ 10/ 12   N/A
FRIPP NEARSHORE  2300   59     280/ 16/ 19 1016.4R


STATION/POSITION TIME  TEMP    WIND        PRES    WAVE   SWELL
                       AIR SEA DIR/SP/G            HT/PER HT/PER/DIR
                 (UTC) (F)     (DEG/KT/KT) (MB)    (FT/S) (FT/S/D)
5E ST. MARYS GA  2321      56                N/A     3/11   2/110/11
FRYING PAN BUOY  2350      66  360/ 23/ 29 1016.8R   6/ 7   2/150/10
BUOY 41025       NOT AVBL
CAPE LOOKOUT NC  0000          360/ 22/ 27 1018.9R
BUOY 41002       2350   74 73  230/ 19/ 23 1018.9R   7/ 8   3/130/10
BUOY 41010       2320   75 75  180/ 14/ 16 1019.3R
ST AUGUSTINE FL  0000   77     240/  5/  8 1018.6R


$$


USA.gov is the U.S. government's official web portal to all federal, state and local government web resources and services.